Flag for Switzerland Weather past 2 weeks in Riehen, Basel-Stadt, Switzerland

Now
56 °F

Fog.


Feels Like: 56 °F
Forecast: 55 / 70 °F
Wind: 2 mph from Northeast

Location: Bale-Mulhouse

Current Time: Sep 2, 2015 at 8:33:03 AM

Latest Report: Sep 2, 2015 at 8:00 AM


Visibility: 2 mi

Pressure: 30.06 "Hg

Humidity: 98%

Dew point: 55 °F

Location of RiehenLocation

Historic Weather in Riehen — Graph

°F

Riehen temperature yesterday

Maximum temperature yesterday: 78 °F (at 12:00 PM)
Minimum temperature yesterday: 62 °F (at 11:00 PM)
Average temperature yesterday: 69 °F

Past Weeks' High & Low Weather Summary

 TemperatureHumidityPressure
High93 °F (Aug 30, 4:00 PM)99% (Aug 20, 8:00 AM)30.26 "Hg (Aug 20, 8:00 AM)
Low49 °F (Aug 20, 7:00 AM)23% (Aug 31, 2:00 PM)29.68 "Hg (Aug 24, 1:00 PM)
Average68 °F69%30.01 "Hg
* Reported Aug 18 7:00 AM — Sep 2 7:00 AM, Riehen, Weather by CustomWeather, © 2015

Note: Actual official high and low records may vary slightly from our data, if they occured in-between our weather recording intervals... More about our weather records

Advertising

Riehen weather history for previous 24 hours

 ConditionsComfort  
Time TempWeatherWind HumidityBarometerVisibility
7:00 AM
Wed, Sep 2
55 °FFog.1 mph99%30.05 "Hg1 mi
4:00 AM54 °FPassing clouds.2 mph96%30.08 "Hg12 mi
3:00 AM55 °FHeavy rain. Overcast.No wind96%30.08 "Hg1 mi
2:00 AM59 °FCool.1 mph94%30.08 "Hg37 mi
12:00 AM60 °FPassing clouds.No wind91%30.07 "Hg9 mi
11:00 PM
Tue, Sep 1
62 °FPassing clouds.5 mph92%30.06 "Hg9 mi
10:00 PM63 °FPassing clouds.3 mph90%30.06 "Hg9 mi
9:00 PM63 °FPassing clouds.5 mph90%30.05 "Hg9 mi
8:00 PM64 °FOvercast.3 mph90%30.03 "Hg9 mi
7:00 PM65 °FRain showers. Overcast.10 mph89%30.01 "Hg3 mi
6:00 PM66 °FLight rain. Overcast.12 mph85%29.98 "Hg9 mi
5:00 PM67 °FLight rain. Overcast.12 mph84%29.96 "Hg9 mi
4:00 PM69 °FOvercast.14 mph74%29.92 "Hg9 mi
3:00 PM73 °FOvercast.13 mph65%29.90 "Hg25 mi
2:00 PM77 °FOvercast.9 mph56%29.86 "Hg25 mi
1:00 PM76 °FOvercast.8 mph56%29.86 "Hg25 mi
12:00 PM78 °FOvercast.8 mph56%29.86 "Hg25 mi
11:00 AM74 °FOvercast.3 mph62%29.87 "Hg19 mi
10:00 AM70 °FLight rain. Overcast.5 mph79%29.85 "Hg25 mi
9:00 AM70 °FOvercast.1 mph72%29.83 "Hg25 mi
8:00 AM69 °FOvercast.6 mph68%29.81 "Hg25 mi
Weather by CustomWeather, © 2015

See weather overviewHow to use our weather pages